Current weather by "City, St" or "zip code"  
 
Advertise Here

Current Conditions: Lawton, Lawton Municipal Airport, OK

Fair


78.0 F

Last Updated on Sep 16 2021, 10:53 pm CDT
Humidity: 62%
Wind Speed: SE 9.2 mph
Barometer 29.93 in
Dewpoint: 64.0 F
Visibility: 10.00 mi
Precip: --
Heat Index: NA
Wind Chill: NA
Current conditions at:

Lawton, Lawton Municipal Airport, OK (KLAW)

Lat: 34.5575 Lon: 98.41667

Local Radar Image active severe weather and emergency alerts image image weather storm and storm spotter reports image weather observation monitoring service image
Local
Radar
Active
Alerts
Storm Reports Obs
Monitoring

Sign-up For Email & Text Message Weather Alert Notification Services



Advertise Here

Observation History for Lawton, Lawton Municipal Airport, OK


Time Wind
(mph)
Vis
(mi)
Weather Precip (in) Temperature (F) Relative
Humidity
Wind
Chill
(F)
Heat
Index
(F)
Pressure
Air Dwpt altimeter
(in)
sea level
(mb)
Rmks
10:53 pm CDT SE 9.2 10.00 Fair -- 78.0 64.0 62% NA NA 29.93 1011.9
9:53 pm CDT SE 8.1 10.00 Fair -- 80.0 64.0 58% NA 82 29.92 1011.9
8:53 pm CDT SE 9.2 10.00 Fair -- 82.0 64.0 55% NA 83 29.90 1011.3
7:53 pm CDT SE 10.4 10.00 Fair -- 85.0 64.0 50% NA 86 29.88 1010.7
6:53 pm CDT SE 9.2 10.00 Fair -- 89.0 63.0 42% NA 90 29.87 1010.2
5:53 pm CDT SE 11.5 10.00 Fair -- 91.0 62.1 38% NA 91 29.86 1009.9
4:53 pm CDT S 8.1 10.00 Fair -- 92.0 63.0 38% NA 93 29.86 1010.0
3:53 pm CDT S 11.5 G 18.4 10.00 A Few Clouds -- 92.0 63.0 38% NA 93 29.88 1010.4
2:53 pm CDT SE 8.1 10.00 Fair -- 90.0 62.1 39% NA 90 29.90 1011.1
1:53 pm CDT S 4.6 G 17.3 10.00 A Few Clouds -- 94.0 62.1 35% NA 95 29.92 1011.9
12:53 pm CDT SE 9.2 10.00 Mostly Cloudy -- 87.0 63.0 45% NA 88 29.95 1012.9
11:53 am CDT SE 10.4 10.00 Partly Cloudy -- 87.0 63.0 45% NA 88 29.97 1013.5
10:53 am CDT 5.8 10.00 Fair -- 85.0 64.0 50% NA 86 29.98 1013.8
9:53 am CDT 4.6 10.00 Fair -- 79.0 64.0 60% NA NA 29.98 1013.8
8:53 am CDT N 0.0 10.00 Fair -- 73.0 64.0 74% NA NA 29.97 1013.6
7:53 am CDT N 0.0 10.00 Fair -- 65.0 61.0 87% NA NA 29.96 1013.5
6:53 am CDT N 0.0 10.00 Fair -- 66.0 61.0 84% NA NA 29.94 1012.6
5:53 am CDT N 0.0 10.00 Fair -- 66.0 61.0 84% NA NA 29.92 1012.1
4:53 am CDT N 0.0 10.00 Fair -- 65.0 61.0 87% NA NA 29.92 1012.0
3:53 am CDT N 0.0 10.00 Fair -- 66.0 61.0 84% NA NA 29.93 1012.1
2:53 am CDT N 0.0 10.00 Fair -- 67.0 62.1 84% NA NA 29.93 1012.3
1:53 am CDT N 0.0 10.00 Fair -- 70.0 62.1 76% NA NA 29.94 1012.7
12:53 am CDT N 0.0 10.00 Fair -- 69.0 63.0 81% NA NA 29.95 1012.8
11:53 pm CDT N 0.0 10.00 Fair -- 70.0 63.0 79% NA NA 29.94 1012.8

Regional Weather Observation


Lawton, Lawton Municipal Airport, OK (KLAW)

Fair
78.0 F

Frederick, Frederick Municipal Airport, OK (KFDR)

Fair
77.0 F

Hobart, Hobart Municipal Airport, OK (KHBR)

Fair
79.0 F

Altus Air Force Base, OK (KLTS)

Fair
77.0 F

Altus, Altus/Quartz Mountain Regional Airport, OK (KAXS)

Fair
79.0 F

Duncan, Halliburton Field Airport, OK (KDUC)

Fair
75.0 F
Advertise Here


Advertise Here